Theta_e
312 312 309 305 303 306 306 304 304 304 303 303 304 304 304 304 305 305 305 306 306 307 307 308 309 309 310 310 310 311 312 316 321 326 327 325 323 323 323 320 322 329 333 341 346 343 341 341 340 342 344 342 341 341 343 345 345 346 348 341 330 332 334 336 341 340 339 343 346 346 346 347 347 346 347 347 346 345 346 346 345 346 346 347 351 352 352 351
312 312 311 308 303 303 307 306 304 303 303 303 304 303 304 304 304 305 305 306 306 307 307 308 308 309 309 309 309 310 313 319 324 328 326 324 323 323 324 321 321 326 333 342 341 337 338 337 339 342 340 340 339 339 341 343 343 345 347 340 333 337 338 338 341 340 341 342 345 347 346 347 347 347 346 346 346 346 347 347 346 347 347 349 352 353 352 352
311 311 311 310 307 303 305 307 305 303 303 304 303 304 304 304 304 305 305 305 306 306 307 308 308 309 309 309 310 310 317 325 327 327 325 323 322 324 324 322 320 321 331 339 336 333 335 337 341 340 339 339 336 336 339 341 343 343 344 340 339 340 339 339 340 340 340 342 345 346 346 347 346 346 345 346 346 344 346 347 346 349 349 349 351 353 353 352
310 311 311 311 309 306 305 306 306 303 303 304 303 304 304 304 304 304 305 305 306 306 307 308 308 309 309 310 309 312 323 329 324 326 325 321 322 323 325 323 319 320 329 334 332 331 333 338 341 338 338 336 332 335 336 339 341 340 342 341 339 340 340 339 339 340 340 341 345 345 346 347 346 346 344 346 346 343 344 344 345 348 349 349 349 351 354 352
310 310 311 311 309 307 305 305 306 304 303 303 303 304 304 304 304 304 305 305 306 307 307 308 309 309 310 310 309 317 327 324 318 327 324 320 323 322 326 324 318 323 331 331 329 330 330 336 338 336 335 332 328 332 332 336 338 338 341 340 339 341 340 340 339 339 340 341 345 346 347 347 347 347 344 346 346 341 341 342 343 345 347 348 348 351 353 352
311 310 309 310 308 306 304 305 305 304 304 303 303 304 304 304 304 304 305 305 306 307 308 308 309 310 311 310 313 321 326 318 320 328 324 321 322 322 326 324 321 328 332 328 328 328 327 332 334 333 332 328 327 329 330 333 336 336 337 338 339 340 340 340 339 338 340 341 345 346 346 346 347 347 345 345 345 341 341 341 342 345 347 349 350 350 350 350
310 310 309 309 307 305 304 305 304 304 304 303 303 303 303 304 304 304 304 305 307 307 309 309 309 311 311 313 320 324 324 320 322 325 323 322 321 323 326 324 324 331 330 324 326 324 323 327 330 330 328 327 327 328 329 331 334 335 336 338 338 338 340 338 337 338 339 341 344 346 345 347 347 346 345 344 345 344 343 342 344 347 349 349 349 348 347 350
309 309 309 309 307 306 306 305 304 304 303 303 303 303 303 304 304 304 305 306 307 308 309 309 311 312 311 319 326 324 321 322 323 322 322 323 323 323 326 328 328 329 328 323 325 324 323 325 327 327 326 326 327 327 329 331 332 334 336 337 337 338 338 335 334 336 339 341 343 346 346 347 345 345 345 344 343 344 344 345 346 347 348 348 347 348 349 350
309 309 309 309 308 307 306 305 304 303 303 303 303 303 303 304 304 304 305 307 308 308 310 312 314 312 312 320 325 319 321 322 321 322 323 324 325 326 330 334 332 329 326 325 325 324 323 323 325 326 326 326 327 328 329 329 331 334 335 337 337 336 335 334 332 335 339 340 343 347 347 346 345 345 346 344 344 345 345 346 347 347 346 347 348 347 350 350
309 309 309 309 308 307 307 305 304 303 303 303 303 303 303 304 304 304 306 308 308 309 313 316 315 313 316 323 323 319 323 322 322 324 323 324 325 329 333 334 334 331 327 326 326 324 323 324 325 325 326 326 326 327 328 329 330 333 334 334 335 333 333 334 333 336 338 341 345 346 345 346 346 346 345 343 345 347 347 348 346 347 346 347 347 347 351 351
309 309 309 309 308 307 307 305 304 303 303 303 303 303 303 304 304 305 307 307 309 314 319 320 314 315 322 325 321 322 322 324 326 326 324 323 323 326 328 330 334 332 327 327 326 325 324 324 326 325 325 325 326 327 328 329 330 332 332 332 335 334 335 335 336 337 338 345 346 343 346 348 348 346 344 345 347 347 348 349 347 347 347 348 347 348 352 353
309 309 309 308 307 307 306 304 303 302 303 303 303 304 304 304 305 307 307 308 315 320 322 320 313 317 326 324 321 324 322 324 326 324 324 323 323 325 325 328 332 331 328 327 326 326 325 324 326 324 324 325 326 326 327 329 330 331 332 334 337 337 338 337 338 339 341 346 345 344 346 348 351 346 344 347 347 347 349 350 348 347 348 348 348 348 352 354
308 308 308 308 308 307 306 303 302 303 303 303 303 304 304 305 307 306 308 315 321 323 322 318 315 320 327 324 323 326 323 324 324 323 324 325 325 326 327 328 330 330 328 326 326 326 324 325 324 323 324 325 326 327 328 329 329 332 333 334 336 334 336 339 339 341 343 345 345 345 335 337 350 346 345 349 347 347 349 350 349 347 348 348 349 349 352 354
308 308 308 307 308 306 304 303 303 303 302 303 303 304 305 306 306 307 315 321 323 322 319 316 318 324 327 324 325 325 324 325 324 326 326 327 328 327 327 328 329 330 328 326 326 325 324 325 324 323 324 325 327 327 328 331 331 333 334 335 335 325 327 341 341 341 345 344 348 345 326 329 344 345 347 350 347 348 350 351 350 347 349 349 350 351 351 353
307 307 307 307 306 304 303 303 303 302 302 303 303 305 306 306 306 313 321 323 321 319 317 318 322 328 327 324 327 325 325 326 326 329 328 328 329 327 327 328 328 327 326 326 325 325 325 325 324 323 324 325 327 326 329 332 333 335 329 325 330 323 327 345 342 340 347 345 349 343 328 331 340 346 350 350 347 348 349 351 351 349 349 349 350 351 351 353
307 307 307 306 303 301 302 302 302 302 302 303 304 306 306 306 312 319 322 321 319 318 322 326 327 328 326 324 327 325 327 328 327 328 327 327 327 327 327 327 327 325 324 325 323 325 324 325 325 323 324 324 325 327 327 326 327 335 329 318 322 322 326 339 342 341 345 347 349 343 334 334 339 346 351 350 348 349 350 351 351 350 350 350 350 350 351 352
307 306 306 304 301 301 302 302 302 302 302 303 305 306 306 311 319 323 323 321 320 321 326 332 328 326 327 324 325 323 327 328 326 327 326 325 326 326 326 326 326 324 325 324 323 324 323 324 324 323 325 324 325 327 322 316 316 326 329 322 323 326 324 328 339 344 344 347 348 345 342 339 342 350 351 350 350 349 350 351 351 352 351 352 351 349 350 351
306 306 304 302 300 301 301 301 302 302 302 304 306 306 309 318 323 324 324 324 323 325 328 329 327 326 325 325 325 323 326 327 325 324 323 325 326 326 326 326 325 323 324 324 323 324 323 324 324 323 323 322 326 326 317 315 318 320 323 321 321 327 325 325 336 342 344 347 346 345 344 341 344 351 352 350 350 349 350 351 351 352 351 353 352 350 349 350
306 306 304 302 301 300 300 301 301 302 304 306 305 307 314 322 324 325 328 328 327 330 331 329 328 325 322 325 325 323 325 324 322 322 322 326 326 326 326 326 324 323 323 323 323 323 322 323 322 320 319 321 325 325 323 325 328 327 327 325 320 321 324 330 337 341 345 346 344 344 343 343 344 349 353 351 350 351 351 352 351 351 351 353 353 351 351 350
306 305 303 301 299 299 300 301 300 303 306 306 307 312 319 323 325 327 327 325 325 324 320 322 325 324 323 323 322 322 323 321 322 321 323 326 325 326 325 325 325 323 322 322 322 323 322 321 320 319 320 322 323 326 329 330 333 333 332 328 325 321 323 332 339 341 345 342 340 344 343 344 344 345 352 352 351 352 352 353 353 352 352 352 353 352 352 351
305 303 302 300 298 299 300 300 301 305 306 306 309 317 317 314 315 316 316 317 319 318 316 316 318 320 320 320 321 321 320 321 322 321 324 326 325 325 324 325 326 324 323 322 321 322 322 319 319 321 322 323 324 325 327 329 332 332 329 326 324 323 325 334 340 342 346 340 337 344 343 343 345 344 350 353 352 353 351 353 353 353 353 352 353 353 352 352
304 302 301 299 298 298 299 300 302 306 307 308 313 317 312 310 310 311 311 312 314 315 315 315 316 317 317 319 320 319 319 320 321 321 325 325 325 325 324 325 326 325 324 322 321 321 319 318 320 322 323 323 324 324 326 329 331 330 329 324 320 324 328 334 342 345 346 339 336 343 342 341 345 345 349 353 353 353 352 352 353 354 355 354 354 354 353 353
302 302 301 300 298 298 300 300 303 308 309 309 314 314 312 310 308 309 310 311 314 315 315 315 316 316 317 319 319 318 318 319 320 321 324 326 326 325 325 325 326 326 325 323 322 317 313 317 322 322 322 323 323 324 325 327 328 329 328 321 318 326 326 325 334 344 346 342 339 342 340 341 347 345 346 350 352 353 352 351 351 353 355 355 353 353 354 353
301 302 302 300 297 298 299 300 306 311 309 310 313 313 312 309 308 309 311 313 316 317 317 317 317 317 318 320 320 319 319 320 321 321 323 325 325 325 325 326 326 326 325 324 323 318 316 320 322 322 322 323 323 323 325 323 323 327 329 323 321 327 328 326 335 342 343 342 344 341 332 333 342 344 345 347 350 351 351 352 352 352 354 355 354 353 354 354
301 301 301 299 298 299 298 305 312 310 308 311 313 312 311 309 309 309 312 317 317 318 320 319 319 319 321 322 321 321 321 321 321 321 324 324 325 325 326 326 326 326 326 325 323 321 320 322 322 322 322 322 321 322 324 322 319 321 328 330 328 330 332 333 337 337 330 329 340 339 323 323 335 341 344 346 349 351 352 354 354 355 355 355 355 355 354 354
300 300 300 299 299 299 300 310 312 306 308 314 313 312 311 310 308 308 314 318 315 319 322 320 321 321 322 322 321 321 321 322 323 323 324 324 324 326 325 326 326 326 327 327 325 322 321 322 321 321 321 321 321 320 323 324 318 316 326 332 332 333 332 333 333 328 320 322 337 340 324 319 325 332 342 344 347 352 354 355 355 356 357 355 356 355 354 354
300 299 299 298 299 300 305 310 308 306 311 313 311 311 310 309 307 310 317 314 312 321 323 321 323 322 322 324 322 322 321 321 323 323 323 324 324 325 325 326 326 326 327 326 321 320 323 322 320 321 321 320 319 318 323 325 318 317 328 332 331 332 330 331 331 325 323 325 332 338 330 320 317 326 343 346 344 352 357 358 357 356 357 356 356 355 354 354
300 299 299 298 298 300 305 309 308 311 311 310 309 309 308 307 307 313 317 313 314 322 323 322 322 320 322 324 323 324 322 322 323 323 323 324 324 324 324 326 326 325 327 324 316 319 324 322 320 321 320 319 319 320 323 325 321 323 332 332 330 332 330 330 328 323 325 323 319 327 329 321 316 326 346 350 344 349 356 358 357 357 357 357 356 354 353 354
300 299 299 298 297 302 307 307 310 311 309 308 307 307 308 309 312 316 315 314 317 321 322 321 322 321 323 324 323 324 324 324 323 323 324 324 324 325 324 325 325 325 326 324 320 322 324 322 322 321 319 319 320 322 323 323 324 326 330 330 331 331 330 330 327 322 322 319 315 320 324 321 317 321 334 343 340 344 351 353 356 357 356 356 357 355 353 355
301 299 298 298 300 307 309 309 310 307 307 307 305 307 311 313 316 315 313 316 318 320 321 320 321 323 324 325 325 325 325 325 325 324 324 323 323 325 324 324 325 326 326 326 324 324 324 323 322 321 320 321 321 322 323 323 325 326 327 329 328 329 330 328 326 322 318 317 318 319 321 322 318 318 326 339 343 343 343 346 350 355 356 357 357 355 353 354
301 299 298 298 302 307 308 310 311 307 306 307 306 309 313 317 317 312 313 318 316 320 322 320 322 322 323 324 324 324 324 324 325 325 325 323 322 323 324 324 324 324 325 323 323 324 324 322 322 321 321 321 321 321 323 324 324 324 327 326 322 322 324 322 321 322 319 317 320 321 322 322 316 318 327 339 346 343 339 340 341 347 354 358 357 355 355 354
301 299 298 298 301 305 307 308 309 307 307 307 308 311 313 315 314 311 315 316 313 318 322 321 323 322 322 322 322 322 323 323 324 326 325 323 322 323 322 323 324 320 316 317 320 322 323 324 323 322 321 321 321 319 321 322 323 324 323 319 315 315 319 318 316 318 318 317 320 322 321 320 318 324 333 338 340 340 339 339 337 340 348 355 358 356 355 354
301 299 298 298 303 307 308 308 309 308 309 309 310 311 311 313 312 312 315 314 313 319 322 322 323 322 322 321 322 322 320 322 324 324 326 324 323 323 322 324 325 321 316 317 316 315 318 324 324 323 322 321 321 317 315 316 319 321 318 314 314 315 317 318 317 317 317 315 318 323 322 318 318 327 338 339 338 339 338 337 337 340 345 350 356 356 354 354
300 298 299 301 306 309 310 309 310 310 310 311 311 310 311 311 313 313 314 315 317 321 322 322 322 322 322 321 322 322 319 321 324 324 325 324 323 322 322 323 324 324 322 319 316 314 313 317 322 323 321 322 322 319 317 320 321 321 323 321 316 314 316 317 316 316 317 315 315 321 322 317 316 326 339 340 337 337 336 335 338 344 347 349 352 355 354 354
300 301 304 306 309 311 311 311 311 310 312 313 309 309 310 310 312 313 315 317 318 320 320 321 322 321 320 322 322 322 320 320 323 325 324 324 323 322 323 323 323 326 323 317 316 317 312 313 322 325 323 323 322 321 322 322 319 321 324 320 315 318 319 315 315 315 314 314 315 316 319 321 324 334 342 339 337 336 336 338 339 343 347 349 350 353 353 353
302 305 307 310 313 313 313 312 312 311 313 313 307 307 309 311 314 314 317 318 317 318 318 317 319 317 315 319 321 322 321 319 323 324 322 324 324 324 325 324 324 326 324 319 319 319 312 313 324 325 323 324 322 322 323 320 318 321 319 315 319 327 325 314 313 316 314 314 316 316 318 323 326 333 339 337 336 335 335 337 337 340 345 349 351 351 351 353
306 308 309 311 313 314 313 312 313 313 314 312 308 308 309 312 313 315 319 321 317 318 317 313 315 315 311 313 317 321 321 319 320 320 319 322 322 323 326 325 325 326 326 324 322 321 316 314 323 325 321 324 323 322 324 322 322 320 315 316 324 328 326 319 314 315 316 315 315 314 315 317 317 322 333 337 335 334 335 335 335 338 344 350 350 350 352 352
308 309 311 313 314 313 313 312 314 314 314 313 310 310 310 310 312 313 317 320 318 318 317 312 314 316 313 311 314 320 321 317 318 319 318 320 320 322 326 326 326 326 326 326 323 325 322 313 318 325 322 322 324 322 320 322 324 322 320 324 323 318 317 318 315 315 315 315 315 313 313 315 314 318 328 334 335 335 335 334 334 335 344 350 349 350 352 352
309 308 310 315 314 312 312 312 315 315 315 314 312 312 310 310 312 312 313 316 316 317 317 315 316 318 316 315 316 320 321 316 318 319 317 318 320 322 325 326 327 326 326 327 325 326 325 315 314 322 324 322 322 319 314 316 322 323 323 326 325 318 316 316 317 316 315 314 315 314 313 314 319 326 331 335 337 336 335 336 336 334 339 348 349 350 352 352
307 306 308 314 313 311 311 313 315 316 316 314 312 311 311 310 311 311 312 312 313 315 316 316 317 317 318 319 318 321 321 319 319 318 317 319 320 321 324 325 325 327 326 327 327 326 327 320 313 319 323 319 317 318 316 316 319 318 316 317 319 320 319 318 317 316 315 314 314 315 313 313 323 335 336 336 337 336 336 336 336 335 335 341 348 350 352 354
307 307 309 313 313 311 312 313 314 314 315 315 313 312 311 311 311 311 311 311 311 312 313 314 316 317 317 318 318 320 320 319 320 319 318 320 319 319 324 324 324 326 326 326 328 326 325 322 315 314 316 313 315 321 322 321 321 320 317 316 317 318 317 315 316 316 315 314 313 315 313 314 327 338 337 336 336 334 335 334 334 336 333 336 346 349 352 355
306 307 307 309 311 312 312 313 313 312 313 314 314 313 312 312 311 310 311 311 311 311 312 313 313 315 316 317 317 319 319 319 319 319 318 319 319 320 323 324 324 325 326 326 327 327 327 325 317 313 316 318 321 324 323 321 323 323 322 321 321 320 315 311 312 315 314 314 314 314 312 318 331 337 335 336 337 334 334 335 334 335 333 338 348 349 352 356
305 305 305 307 310 312 313 313 313 311 312 312 313 312 313 312 312 311 311 311 311 311 311 312 312 313 314 315 317 317 317 317 318 318 318 319 319 321 321 322 322 324 325 325 325 327 327 325 319 315 319 323 324 325 325 324 323 320 320 323 322 320 319 317 317 318 315 313 315 314 312 318 329 341 340 336 336 334 333 334 336 339 338 342 350 351 352 356
304 304 306 309 312 312 314 315 314 313 313 313 312 312 313 313 312 312 312 312 311 311 311 311 312 312 313 314 315 316 315 315 316 317 318 317 318 319 320 320 321 323 324 325 326 326 323 323 320 315 316 319 320 321 321 321 322 319 320 323 323 322 323 321 320 320 315 313 315 315 312 317 330 345 345 340 337 334 333 333 336 344 345 345 352 353 353 356
304 306 308 311 313 313 314 314 314 315 316 315 315 315 316 315 314 313 313 313 313 313 312 312 312 312 313 314 314 315 315 314 314 316 316 317 318 318 318 319 321 322 322 326 329 325 322 325 323 316 314 316 315 315 315 317 320 321 321 322 322 322 322 319 316 314 313 315 316 314 313 319 332 343 341 339 339 333 333 334 333 341 347 348 354 356 356 358
304 307 308 309 313 314 313 313 313 314 314 315 315 316 315 315 316 314 314 314 314 314 314 314 314 313 313 313 313 314 315 315 314 316 317 318 318 318 319 320 321 321 325 330 332 329 327 328 326 321 317 316 316 319 324 323 319 317 319 321 321 322 323 319 314 310 314 316 314 317 319 320 327 336 336 335 335 334 335 334 332 340 347 350 356 359 357 359
305 307 308 310 312 312 311 312 313 313 313 313 314 316 315 315 316 316 316 315 314 314 314 314 315 315 315 315 314 314 315 316 316 316 317 318 319 320 321 322 322 325 329 330 330 333 331 326 327 327 323 322 324 326 328 326 320 318 319 319 320 323 322 318 313 313 319 315 311 321 327 319 323 333 335 333 335 334 334 333 333 338 343 348 358 360 356 356
305 307 308 310 310 310 310 311 311 310 310 311 312 314 314 314 315 316 317 317 316 315 314 315 315 315 316 317 317 317 317 318 317 317 317 317 318 320 321 322 323 324 327 327 329 336 334 326 328 329 325 327 328 327 328 328 325 324 323 320 321 322 321 318 316 319 321 315 313 323 328 323 327 333 332 334 334 333 333 334 332 333 337 349 360 360 355 354
305 305 306 307 307 308 308 308 307 306 307 309 311 312 313 314 314 315 317 319 319 317 316 316 315 314 315 316 318 321 321 319 318 319 320 319 318 319 319 320 322 322 324 326 329 336 334 329 332 330 325 326 329 328 329 326 324 323 323 324 324 323 322 321 320 323 322 319 320 326 327 328 332 331 330 333 333 333 333 333 332 332 338 350 358 358 355 352
305 304 304 304 305 305 305 305 305 306 308 309 310 310 310 312 314 316 317 318 319 320 319 318 318 317 318 316 317 321 323 323 323 324 325 323 321 320 320 320 322 322 323 325 329 334 332 330 334 331 322 322 327 329 328 327 324 321 321 325 326 324 323 322 322 323 322 321 324 325 324 327 331 332 332 331 332 333 332 333 334 334 337 347 353 353 352 351
305 304 303 303 303 305 305 306 307 308 308 308 308 309 310 312 313 314 314 315 316 319 320 319 319 321 322 322 322 323 325 326 327 327 327 326 324 324 323 322 323 324 325 328 331 333 332 330 333 330 320 318 323 325 325 326 324 319 318 323 323 322 322 322 322 324 322 321 323 320 318 324 330 331 330 331 332 332 334 335 334 335 338 345 350 352 352 353
305 304 304 303 304 305 306 306 307 307 306 306 308 311 312 312 312 311 312 314 315 317 318 317 318 319 322 324 325 325 323 323 324 324 324 324 324 325 326 326 326 326 328 331 332 333 334 331 329 327 321 319 323 324 322 321 319 315 318 323 325 324 325 324 324 326 326 324 322 318 320 327 332 329 329 332 330 330 336 337 336 341 348 351 351 351 352 353
Wind_Speed
21 21 20 19 19 19 17 17 18 19 19 20 21 21 21 20 20 20 20 21 22 22 22 22 21 22 22 22 22 22 23 22 17 12 11 9 7 5 7 9 12 18 21 18 18 16 15 13 12 13 11 8 7 5 7 7 5 4 4 4 2 1 3 2 2 2 3 6 9 11 10 8 10 9 6 7 7 8 9 8 9 6 3 8 15 22 26 25
22 22 22 20 19 20 19 18 18 19 20 21 21 22 22 21 21 21 21 22 22 23 22 22 21 21 21 21 21 20 22 19 16 16 11 4 5 7 3 10 17 20 22 20 21 19 15 13 13 13 10 6 6 6 6 6 6 6 5 4 3 1 3 2 1 2 1 5 9 11 10 7 9 10 8 9 9 10 10 9 10 8 9 12 18 24 25 25
22 22 23 22 20 20 20 19 18 19 20 21 22 23 23 23 23 22 22 22 23 23 22 22 21 20 20 20 19 17 17 15 15 9 4 4 8 8 3 10 21 24 23 21 20 18 14 13 15 14 9 7 6 7 6 6 6 7 6 4 3 1 1 0 1 3 2 5 10 11 10 8 9 10 9 9 10 11 10 10 12 11 12 15 19 23 24 24
23 23 23 23 22 21 21 20 19 20 21 22 22 23 23 23 24 24 24 23 24 23 22 21 20 20 18 17 16 13 12 13 8 6 9 9 12 8 4 8 19 25 23 18 17 17 14 13 16 14 9 8 7 7 7 6 6 5 6 6 2 1 2 1 2 4 3 5 9 11 11 9 9 10 9 9 9 10 10 11 14 13 15 18 19 22 23 23
23 23 23 23 23 22 22 21 21 21 22 23 24 24 24 25 25 25 25 25 24 23 22 21 20 19 16 15 11 9 10 9 2 10 4 10 12 10 5 7 15 23 21 16 16 16 14 14 14 12 9 8 8 8 9 9 7 5 7 9 5 3 4 1 2 5 5 6 9 12 11 9 10 10 10 11 8 6 8 11 12 13 17 20 21 21 22 21
23 24 24 24 24 24 23 22 22 22 23 24 25 26 26 26 26 26 26 26 25 23 22 21 20 17 13 11 6 4 7 6 2 2 5 11 9 8 6 6 15 22 19 14 16 15 14 14 13 11 9 9 10 9 9 10 9 7 7 9 8 7 6 3 3 6 7 9 11 12 10 10 11 10 10 12 6 3 4 10 11 13 17 21 23 21 20 20
24 24 25 24 24 25 24 24 23 23 25 26 27 27 27 27 27 27 27 27 25 23 22 21 19 15 9 5 2 4 8 11 10 7 11 13 7 6 6 8 16 20 18 15 16 15 15 15 15 12 10 10 11 11 9 7 9 9 8 7 8 8 8 7 4 7 10 11 11 11 11 13 13 9 10 13 7 5 3 8 12 15 19 21 21 20 21 20
24 24 25 25 25 26 26 25 25 25 26 27 28 29 29 29 29 29 28 27 25 23 22 20 17 11 5 2 3 8 9 12 11 8 11 9 3 5 5 10 18 19 19 19 18 16 16 17 17 13 11 11 10 11 9 7 9 11 10 8 7 8 8 8 6 9 12 10 10 12 12 13 12 8 9 12 9 6 5 10 13 16 19 19 19 20 20 19
25 25 26 25 26 26 27 26 26 27 27 28 30 30 30 30 30 30 29 26 24 23 21 18 14 6 4 4 6 10 7 5 5 6 7 4 1 3 3 10 18 19 19 21 20 19 16 15 18 15 12 12 10 10 9 8 7 8 11 9 7 8 8 7 8 11 12 9 11 14 12 12 11 7 8 11 9 7 8 13 15 16 18 18 18 19 18 17
25 25 26 26 26 27 27 27 27 28 28 30 30 31 31 31 31 30 28 26 24 22 18 15 9 4 6 5 8 9 4 3 3 4 5 5 2 1 4 8 16 20 19 19 20 20 17 15 17 14 10 9 9 9 10 10 4 2 7 8 7 9 8 7 9 12 12 10 13 15 12 12 12 7 6 10 11 9 11 14 15 16 17 17 17 17 17 17
25 25 26 26 27 27 28 28 28 29 30 31 31 31 31 32 32 29 27 24 22 18 14 11 5 8 7 7 9 8 3 2 3 4 7 7 5 6 8 8 15 20 19 17 19 21 20 18 15 10 6 7 8 10 11 9 5 4 6 7 8 9 7 8 9 12 11 11 14 13 10 11 11 8 7 11 14 11 12 14 15 15 15 16 17 16 14 15
25 25 27 27 27 28 28 29 30 30 31 31 31 32 32 32 30 27 25 21 17 14 10 7 6 9 6 7 11 12 9 7 5 5 8 9 10 11 10 9 15 20 19 17 18 21 22 18 15 12 7 5 8 9 8 9 7 7 8 8 7 6 6 8 9 13 12 10 13 11 7 9 11 11 8 13 16 13 13 13 15 15 14 15 16 14 13 14
26 27 28 28 27 28 29 31 32 32 32 32 32 32 32 30 27 25 22 16 12 10 7 3 7 9 6 7 10 12 12 10 7 9 11 11 11 10 8 9 13 17 18 15 16 18 19 15 15 16 10 7 8 3 2 8 8 8 9 9 6 6 6 8 9 13 12 9 14 11 5 8 12 14 11 14 16 15 13 13 14 13 13 14 14 14 13 15
27 28 29 28 28 28 30 32 34 34 33 33 33 32 29 27 26 22 15 10 8 5 2 4 8 6 6 9 10 10 12 11 10 11 10 8 8 7 6 7 10 14 14 13 13 14 13 11 14 14 10 9 6 3 3 8 8 8 9 7 7 6 5 10 10 14 12 9 15 12 6 5 8 13 14 15 17 17 14 14 14 13 13 13 14 14 13 14
28 29 28 28 29 30 32 34 35 36 34 34 34 29 26 26 23 15 7 5 3 0 3 6 7 5 7 10 9 7 9 9 10 9 4 4 8 8 8 9 9 11 12 11 9 11 11 10 12 10 10 9 5 6 9 7 7 8 8 7 9 6 5 10 10 14 12 9 15 13 7 4 5 12 16 14 16 17 15 14 15 14 15 14 13 14 13 14
29 30 29 29 30 32 34 36 37 37 36 35 32 26 25 24 15 7 2 1 1 5 5 3 6 6 8 5 2 3 4 6 7 7 3 3 6 8 10 11 9 10 12 10 6 9 11 9 10 9 9 10 8 9 9 7 8 8 8 9 9 8 7 9 9 13 11 10 15 14 8 5 4 11 15 14 16 16 14 14 15 15 15 15 13 13 12 13
30 32 31 31 33 35 36 37 37 37 37 34 29 25 22 16 6 2 0 2 2 4 3 4 3 6 8 3 3 5 4 6 6 5 2 4 6 8 12 11 9 11 11 9 7 9 12 9 7 7 8 9 10 10 9 10 9 8 9 9 8 10 8 8 9 12 12 11 14 16 12 6 5 10 14 14 16 16 14 14 16 15 14 14 13 13 13 13
30 32 31 32 35 36 37 38 37 38 37 30 25 24 16 7 2 1 2 3 2 3 5 4 3 5 5 5 5 2 5 6 4 4 6 4 7 11 14 9 9 13 11 9 9 10 11 9 8 8 9 10 11 12 11 11 11 10 10 9 8 9 9 9 9 11 15 13 13 15 14 11 6 9 11 13 15 15 14 13 14 15 15 14 13 14 14 14
29 29 30 33 35 36 37 37 37 38 34 25 23 20 9 3 2 4 5 6 4 4 4 3 7 6 5 3 5 2 2 3 6 11 8 6 8 13 13 9 10 14 11 9 11 12 10 8 9 10 11 13 14 15 14 13 13 13 11 10 10 9 9 11 9 11 16 13 13 14 14 14 11 9 10 12 13 13 13 12 12 13 14 14 14 13 14 15
29 30 31 35 36 38 38 36 37 34 26 23 24 15 4 2 3 3 5 8 10 11 11 7 10 11 12 9 6 5 6 7 8 10 9 10 11 14 12 10 12 12 10 10 11 12 10 10 11 12 14 16 18 18 17 16 13 13 12 11 13 11 9 12 10 11 15 13 12 15 14 14 14 10 10 11 12 13 12 13 13 13 14 14 15 15 15 15
30 32 34 36 38 39 36 36 37 26 18 22 19 9 2 5 5 3 4 9 13 14 17 15 13 16 17 14 10 7 5 6 8 8 9 12 15 14 11 12 12 10 11 12 10 10 10 11 13 16 16 16 18 19 18 18 14 13 12 11 11 12 9 10 9 9 14 12 10 13 15 14 14 11 8 10 13 13 14 14 14 15 15 13 15 17 16 14
31 33 35 36 39 39 36 38 32 16 15 19 12 4 5 6 5 5 5 10 13 13 17 17 16 18 18 17 15 9 6 8 10 10 11 14 16 13 11 13 12 10 12 12 9 9 10 12 14 17 16 15 16 18 19 18 15 12 11 10 10 10 8 7 8 10 12 9 9 11 13 13 13 12 10 12 13 12 13 15 14 15 15 14 15 16 16 15
32 35 35 36 41 38 35 37 23 8 14 15 8 3 5 4 7 6 5 8 12 12 14 15 15 16 15 14 12 11 11 12 11 12 15 16 15 13 12 14 14 12 13 13 11 9 10 12 15 16 15 16 17 18 19 17 14 12 11 10 9 11 9 7 9 12 11 9 9 10 10 10 11 13 13 13 13 12 13 15 15 15 15 16 16 16 16 17
34 35 35 38 42 38 36 32 11 3 14 13 7 1 4 4 9 8 6 7 10 9 10 11 10 11 9 4 7 13 12 11 10 11 18 18 13 12 12 14 15 13 12 15 16 13 11 9 13 16 15 16 16 16 18 14 11 14 15 12 11 11 11 10 10 11 11 10 9 9 8 8 11 14 14 12 14 14 14 15 15 15 16 16 16 16 17 17
36 35 37 40 41 39 36 19 3 10 20 10 3 3 1 7 10 9 6 5 8 5 6 7 6 6 5 4 8 10 8 9 11 10 16 20 16 11 11 11 11 13 14 17 16 14 12 7 9 15 14 16 17 14 17 14 11 14 16 17 15 12 11 12 11 10 8 8 9 9 8 8 10 14 14 12 13 15 15 16 17 17 16 16 16 16 17 17
36 36 39 39 39 43 31 7 5 20 19 3 4 2 3 9 12 9 5 4 7 3 5 5 5 5 7 7 8 7 6 7 10 10 14 19 18 12 10 9 8 12 15 15 11 8 11 9 9 14 15 17 18 14 17 17 12 11 14 18 17 12 10 11 12 11 8 8 9 11 9 8 8 11 13 13 13 15 15 17 19 17 16 17 16 16 16 17
36 36 39 38 39 38 20 6 15 19 9 2 3 2 6 11 12 7 4 4 6 2 4 2 2 4 5 7 10 7 3 4 7 12 14 16 18 14 12 11 8 10 10 9 9 7 11 13 11 14 15 16 16 13 16 18 14 11 12 17 18 14 12 12 13 11 10 9 8 10 11 9 8 8 8 11 14 15 16 18 18 17 18 19 18 18 18 18
36 36 37 37 38 30 13 13 17 11 3 3 3 7 10 12 9 4 5 5 2 1 2 3 3 3 3 6 11 8 1 1 4 10 15 16 17 13 13 14 12 12 12 10 9 8 13 16 14 15 14 12 14 14 16 17 15 13 10 14 16 15 14 12 11 10 11 11 8 10 12 10 9 7 5 9 13 14 16 18 18 19 20 20 20 20 20 19
37 37 35 38 39 24 8 11 12 8 7 7 7 9 11 9 5 4 5 4 2 2 2 3 4 6 6 5 11 11 6 5 3 5 12 15 15 10 10 14 14 14 15 14 12 7 10 15 15 15 14 11 13 15 16 17 16 12 8 10 13 14 13 12 11 9 11 12 10 11 13 8 9 8 7 9 11 12 14 15 17 19 20 20 20 21 20 18
39 37 35 38 33 16 6 11 15 12 10 8 7 9 9 6 4 5 7 4 1 3 4 3 4 7 8 7 9 10 9 8 3 6 10 12 14 11 6 8 12 13 13 15 15 9 7 8 11 13 13 12 13 14 15 16 16 11 7 10 11 11 11 10 9 9 11 11 11 14 14 10 10 9 8 9 10 12 11 10 12 16 19 20 19 19 20 18
40 38 35 36 28 12 8 9 8 6 4 5 8 8 7 5 4 7 7 2 2 4 7 6 7 7 8 7 5 8 9 8 8 10 10 10 13 13 7 7 10 10 10 12 14 14 11 9 8 10 12 13 13 13 11 13 16 12 8 10 9 7 7 8 7 8 10 9 12 17 17 14 11 10 8 9 11 12 10 10 12 14 18 19 17 17 18 18
41 39 34 33 26 14 11 7 3 3 4 6 9 7 6 5 7 10 5 1 1 6 6 6 9 9 8 5 4 6 6 6 10 11 11 11 12 13 13 11 10 10 11 11 11 14 13 12 11 10 12 15 14 12 10 11 14 13 10 11 10 8 7 8 9 9 9 10 12 16 17 14 11 12 12 10 11 12 11 11 12 12 13 14 16 17 16 16
42 39 33 28 21 13 15 12 9 9 8 7 7 5 6 8 9 9 9 5 1 3 2 4 8 9 8 7 7 7 5 5 9 12 13 13 12 13 17 16 15 13 10 10 11 11 11 12 15 14 12 15 16 12 10 11 12 13 12 11 11 10 10 11 11 9 9 12 13 13 12 11 10 11 14 15 15 14 13 14 13 10 9 10 14 16 15 17
41 36 31 26 18 11 10 9 10 9 7 7 6 6 10 12 9 8 12 11 4 2 4 5 6 9 10 9 6 4 6 6 9 11 12 13 12 12 15 18 20 15 9 10 10 10 11 10 15 17 11 13 18 15 12 11 12 14 14 13 12 11 11 10 9 10 10 11 13 14 10 10 10 7 8 12 14 14 13 13 11 9 9 9 11 14 16 17
38 30 26 21 13 8 5 6 7 6 6 7 6 9 13 12 8 8 9 10 8 6 6 5 6 8 10 10 8 6 6 5 8 11 11 12 12 11 13 15 19 17 11 10 8 10 14 10 12 18 15 15 18 16 15 13 11 12 13 13 13 12 11 9 10 12 12 10 12 12 8 9 9 5 5 7 9 11 13 12 11 10 10 10 10 13 15 15
33 25 20 13 7 4 4 6 7 9 8 7 8 12 12 10 8 7 5 7 10 9 8 8 9 9 9 9 10 9 7 5 7 8 9 12 13 13 14 12 17 19 14 10 6 7 11 9 10 16 18 19 18 16 17 14 9 9 12 14 13 13 13 12 11 11 11 12 11 9 8 9 9 8 11 13 13 14 14 13 13 12 11 12 11 12 14 15
26 20 16 11 6 3 5 6 9 10 8 7 11 13 10 10 11 8 4 4 5 7 9 10 9 10 11 9 10 12 11 8 8 8 8 11 11 13 16 13 16 21 18 12 7 6 8 8 9 15 17 19 18 17 19 18 13 9 10 14 12 11 12 12 11 9 11 12 10 11 13 12 10 9 11 15 17 17 16 16 15 11 11 13 13 13 14 15
22 19 15 9 4 2 3 7 10 9 6 8 14 14 11 11 12 11 8 4 4 6 10 10 7 9 11 9 10 12 12 9 9 9 8 8 8 11 15 13 15 19 21 17 10 7 8 8 9 16 17 16 17 16 16 18 20 15 9 10 11 10 10 10 10 10 13 12 10 14 17 13 11 9 8 11 14 14 15 15 13 10 11 13 12 13 15 15
18 14 7 3 4 2 3 7 9 7 7 9 12 12 10 12 13 13 12 9 8 8 10 11 9 8 10 10 9 9 11 10 9 9 8 7 6 9 13 12 14 17 20 19 12 7 8 7 7 13 16 15 14 14 13 14 19 19 13 10 11 11 10 10 10 9 11 12 11 14 15 11 10 11 12 12 10 10 10 11 10 10 10 12 11 11 13 14
11 8 2 6 5 4 4 5 7 6 8 11 11 10 9 12 13 14 15 14 10 9 10 12 12 10 10 12 10 8 9 10 9 7 7 7 6 6 10 12 13 16 19 20 15 9 8 7 7 9 14 14 11 12 15 15 15 15 13 12 11 10 9 10 11 10 11 11 11 12 13 10 8 10 14 15 12 11 12 12 11 12 12 12 11 11 12 14
9 6 1 7 3 1 1 6 8 6 8 10 11 13 11 10 10 12 15 15 13 11 11 13 13 12 11 12 11 9 8 8 9 8 7 8 7 5 8 11 12 14 16 18 16 11 8 7 8 7 10 11 12 14 18 19 16 14 13 13 13 11 10 11 12 12 12 12 11 12 12 10 7 8 11 14 15 14 14 14 13 14 15 11 9 10 11 12
7 5 3 5 4 6 6 7 7 7 9 9 10 12 10 8 9 11 12 14 13 12 12 13 14 13 12 11 11 11 9 9 10 11 8 9 10 7 5 6 9 12 12 12 14 13 9 6 8 9 8 11 14 15 18 20 21 18 14 15 15 13 12 12 11 11 12 13 14 14 13 10 8 8 10 12 14 15 15 14 13 14 14 10 7 8 10 11
5 8 13 12 6 7 7 7 8 8 9 10 11 13 11 9 11 12 12 13 13 11 11 12 14 15 14 13 12 12 11 10 11 12 10 9 10 9 6 3 6 10 10 10 12 13 9 6 8 9 9 9 13 15 15 17 19 17 15 15 16 16 16 14 12 11 12 13 13 13 13 10 8 6 7 9 14 16 15 14 13 13 12 8 7 7 8 10
6 9 11 7 6 7 7 6 7 8 9 10 12 13 12 11 12 12 12 13 11 11 12 12 13 14 14 13 14 14 13 11 11 12 12 10 8 10 13 10 8 9 8 6 7 9 8 8 8 9 8 8 11 12 12 14 14 12 13 16 18 20 22 18 14 12 13 15 17 15 12 10 8 7 6 9 14 15 14 14 13 11 10 7 5 6 7 8
7 7 6 6 8 8 7 7 8 8 9 10 11 12 12 11 12 14 14 13 12 11 11 11 13 14 14 14 15 15 15 12 10 9 10 11 9 10 13 13 11 12 9 5 3 6 9 9 9 10 11 10 11 11 10 11 12 11 14 19 21 23 25 19 13 13 13 14 16 15 11 10 12 11 11 12 14 13 12 13 12 10 9 8 5 5 7 8
6 5 5 5 6 7 7 8 8 8 8 9 9 10 12 11 11 13 15 15 14 14 12 10 12 13 14 16 15 15 17 16 13 10 9 9 9 9 11 11 11 12 8 5 5 5 7 8 11 13 14 12 11 11 11 12 13 14 18 21 21 22 24 20 13 13 13 11 13 14 13 14 15 15 15 16 15 14 13 13 13 11 10 9 6 6 7 7
5 5 5 4 3 6 7 7 7 7 8 8 7 8 10 11 9 9 12 13 13 15 14 12 13 13 14 16 15 14 15 16 15 14 12 11 9 7 8 9 10 9 5 6 8 8 7 9 13 17 18 17 16 15 15 15 15 17 20 22 21 20 22 21 17 16 15 12 12 14 14 17 18 17 16 16 15 15 13 13 14 13 12 10 7 7 8 9
5 6 6 5 5 6 6 5 6 8 10 11 8 9 12 12 11 9 9 10 12 14 12 12 16 17 16 15 13 13 14 15 15 16 14 12 11 9 8 10 12 11 8 10 11 8 7 9 13 17 19 21 22 20 19 18 17 18 19 21 22 22 22 21 20 21 19 14 13 13 15 18 19 19 19 17 14 14 13 14 16 15 13 10 7 8 9 10
6 6 5 5 6 7 9 11 12 12 13 11 8 9 11 12 13 11 7 7 11 13 12 13 16 18 20 19 14 12 12 12 13 14 13 13 12 11 10 10 12 13 12 11 10 8 7 9 13 16 19 21 23 24 24 22 20 20 22 22 23 24 25 24 23 23 23 21 19 17 18 19 17 19 22 20 17 15 14 15 16 16 15 11 8 9 10 11
6 6 6 5 6 7 9 10 10 10 10 9 8 9 10 12 13 10 7 8 9 9 12 14 13 11 15 19 17 14 13 12 11 10 10 11 12 11 10 9 10 12 13 11 9 9 8 9 11 12 14 17 21 23 24 24 23 23 23 24 24 24 25 25 24 23 22 22 22 23 22 18 15 16 19 19 18 18 17 16 16 16 16 14 11 10 11 12
8 8 7 6 6 7 6 7 7 7 7 6 7 7 8 9 9 10 10 10 12 12 10 8 7 7 7 10 13 13 12 9 9 8 6 7 8 7 7 7 8 9 11 10 8 8 8 8 7 8 9 12 16 20 23 23 23 23 22 23 24 23 21 21 20 21 21 20 22 23 20 15 13 16 18 18 19 19 17 17 17 17 17 15 12 12 12 13
7 7 6 5 7 7 6 6 6 6 7 6 5 6 6 7 9 10 9 8 9 9 8 10 11 8 6 6 6 6 6 7 7 8 8 8 9 10 8 8 9 8 8 9 8 6 6 6 6 7 8 9 13 17 19 19 18 17 17 19 22 22 21 21 20 22 23 21 18 17 15 13 14 15 17 19 22 21 17 16 16 15 14 13 12 12 12 12
Wind_Direction
353 351 351 349 348 348 349 351 352 352 352 349 348 346 345 344 342 340 336 332 331 331 329 328 327 325 325 325 324 325 325 324 315 289 262 279 311 293 263 233 202 178 168 166 165 167 171 182 182 178 184 185 214 224 191 213 231 225 243 252 275 40 62 76 129 84 68 122 150 159 171 166 146 160 148 156 171 146 155 154 142 136 120 130 126 136 145 150
352 350 349 348 347 347 347 349 351 350 349 346 345 343 343 342 340 338 335 332 329 328 327 326 325 325 324 323 324 325 326 318 291 273 261 268 331 340 301 204 204 184 169 171 174 176 177 179 176 177 186 191 204 195 181 193 204 225 246 248 264 360 46 29 96 125 112 128 147 164 175 173 155 156 164 178 169 157 163 154 153 143 127 130 132 141 147 153
350 349 348 347 346 346 346 347 349 349 346 344 343 342 341 340 339 336 334 332 328 325 324 323 323 323 322 323 323 327 328 305 280 258 177 44 360 344 356 188 202 194 181 182 184 187 190 179 173 181 195 210 202 188 196 184 189 229 246 252 236 287 351 8 223 191 167 132 153 165 172 173 157 155 174 185 167 172 180 162 166 162 145 145 144 147 151 158
350 348 347 346 345 344 344 344 346 346 344 342 341 340 339 338 337 335 334 332 327 323 320 321 321 321 321 320 321 332 321 287 284 132 124 20 7 1 11 172 192 197 193 192 194 198 200 183 177 192 208 221 210 200 217 189 188 224 228 258 257 76 291 180 198 214 179 158 163 162 168 171 159 162 181 184 173 184 191 176 177 169 155 154 151 152 157 161
349 347 347 345 344 342 342 342 343 344 342 341 339 338 338 336 336 334 333 330 326 322 318 318 317 319 319 316 322 334 307 284 61 119 132 357 360 4 19 166 178 189 197 200 199 201 203 188 184 205 220 229 216 206 226 206 210 243 227 253 267 271 283 210 198 209 181 176 170 165 171 164 159 175 184 187 187 185 185 180 178 166 158 158 156 156 161 165
347 347 345 344 343 341 340 341 341 343 341 340 337 337 336 335 334 332 331 328 324 319 316 315 315 318 315 313 324 314 289 284 17 137 292 329 330 359 34 164 170 179 194 203 199 199 200 191 189 207 217 228 224 216 230 209 211 247 233 235 246 248 260 262 222 196 181 187 182 172 168 157 168 184 185 194 191 96 161 172 164 159 159 160 158 159 165 169
346 345 344 343 342 340 340 339 341 342 340 339 337 336 335 333 332 331 329 325 322 318 314 312 312 313 308 316 300 251 257 267 286 283 290 302 294 356 38 157 172 182 195 201 200 199 197 195 197 207 214 222 227 226 232 212 209 243 252 236 236 237 241 255 242 198 191 196 186 173 168 168 180 180 176 197 181 90 130 160 151 153 158 161 161 165 170 172
345 344 343 342 341 340 339 338 341 342 340 338 336 336 334 332 331 329 326 323 319 316 311 308 307 305 282 237 260 267 260 263 280 284 283 285 273 356 49 157 180 191 199 202 202 200 197 199 201 204 216 222 226 225 223 220 219 233 252 252 242 240 239 250 248 209 198 200 184 176 179 177 181 167 169 194 177 126 143 150 150 154 159 166 169 170 171 174
345 344 343 341 340 339 338 338 341 341 340 337 335 334 332 331 329 327 324 320 318 312 307 303 299 284 206 203 265 277 279 277 289 289 275 248 257 4 98 169 186 194 203 206 205 205 203 203 203 204 219 226 225 227 217 223 229 224 240 252 248 249 253 257 246 212 198 194 178 181 188 180 172 159 170 186 166 137 150 153 155 160 164 171 173 173 173 175
345 343 342 341 339 338 337 337 340 341 339 336 334 332 331 330 327 325 321 318 316 309 302 297 285 203 187 225 256 268 297 308 275 265 243 226 241 173 188 198 191 197 208 209 209 210 209 209 207 207 232 238 224 228 220 224 253 240 243 259 261 266 273 264 239 206 196 185 178 187 191 175 166 172 186 170 155 148 156 160 162 165 170 175 176 176 175 178
344 343 341 340 338 337 336 337 340 340 338 335 333 331 330 328 325 323 320 318 313 304 297 293 247 178 202 238 251 265 311 296 231 219 239 243 256 257 253 231 200 203 209 209 212 213 213 215 210 204 228 236 218 225 225 224 256 258 253 261 252 265 265 242 220 192 188 180 183 194 185 167 168 197 204 156 155 161 160 164 167 172 175 177 179 176 176 182
344 342 341 339 338 337 337 338 340 340 337 334 331 330 328 326 323 321 320 317 308 297 293 286 196 173 216 242 243 258 276 274 239 230 253 257 263 267 263 237 212 209 210 210 211 211 215 215 211 207 206 216 213 221 221 212 237 246 247 254 234 242 239 211 194 180 180 176 179 183 172 180 191 206 192 151 158 163 163 168 170 176 178 178 181 177 179 186
343 342 341 339 337 337 337 339 340 340 336 333 331 329 327 325 322 321 320 313 302 290 287 263 165 175 232 252 251 258 263 262 252 257 262 260 258 254 244 231 217 213 215 216 212 208 211 212 213 214 213 227 214 185 186 200 223 237 233 249 235 232 216 183 177 176 178 171 167 172 187 203 204 203 179 154 164 167 168 175 174 179 180 181 183 182 184 187
343 341 341 338 337 337 337 339 340 339 336 333 330 328 327 324 320 320 317 308 302 284 265 138 150 184 234 262 270 264 260 255 253 257 256 244 230 217 210 207 205 209 210 213 210 199 203 212 216 218 220 241 229 148 188 198 210 227 224 236 236 241 188 164 178 178 174 163 167 186 223 209 188 187 173 160 169 172 175 179 178 181 180 184 184 185 188 187
342 342 340 338 339 340 339 339 340 339 335 332 329 329 328 321 318 318 309 306 309 146 99 125 162 208 258 271 269 267 264 244 230 223 215 209 198 189 181 180 187 194 193 199 201 187 194 204 208 214 207 223 238 198 210 207 201 217 222 220 221 234 170 159 185 188 175 158 175 199 229 213 170 167 168 170 174 176 182 182 181 184 181 185 187 189 192 187
341 341 339 340 342 343 342 341 340 338 334 331 329 330 326 319 315 309 297 346 103 116 106 157 191 225 280 296 218 243 244 202 190 180 176 214 198 177 162 169 175 172 179 193 196 184 193 202 204 216 204 200 216 211 213 214 207 208 220 228 213 209 188 165 186 196 179 155 180 205 224 215 161 159 167 175 179 180 186 186 185 188 184 185 187 191 194 189
341 340 341 343 345 344 343 342 341 338 333 330 331 330 325 317 301 278 51 104 117 130 163 257 219 227 266 269 220 243 201 169 161 164 234 254 213 170 154 166 173 164 169 181 194 189 190 200 197 208 214 203 207 211 214 214 211 202 212 234 226 216 214 178 174 193 186 171 187 206 224 221 139 157 174 178 183 185 191 190 187 190 189 188 189 192 194 193
340 339 341 344 345 344 343 342 341 337 332 331 334 331 324 310 267 200 148 140 134 178 217 253 230 236 242 210 228 237 133 153 185 259 285 250 204 176 163 171 166 162 168 173 191 192 185 195 193 198 208 205 205 208 213 213 210 208 207 222 228 226 231 203 174 183 190 191 197 203 219 227 180 160 177 182 185 192 196 194 191 191 191 190 192 195 194 196
339 339 341 342 344 344 342 342 340 337 333 335 341 336 320 271 224 191 201 195 188 226 247 189 195 253 312 219 212 215 182 221 261 275 260 184 178 177 173 180 166 167 177 175 185 190 185 190 197 205 204 200 206 207 214 219 216 218 214 219 228 224 225 217 194 181 188 198 208 208 218 226 214 184 179 183 185 196 202 198 197 196 194 194 195 198 197 198
339 340 341 342 344 343 341 341 340 338 338 344 345 334 294 273 262 200 211 226 229 250 273 255 220 255 288 273 251 262 260 242 252 259 218 175 169 173 176 181 175 179 189 180 178 185 192 199 201 208 206 200 204 207 216 224 223 225 222 224 234 235 222 208 197 187 191 203 213 215 224 229 227 213 190 185 185 193 203 203 204 201 199 199 199 201 200 201
338 340 341 343 344 341 340 340 339 337 347 352 341 319 346 8 331 330 321 272 253 247 256 257 244 253 263 263 266 274 271 236 231 234 204 183 175 174 175 179 183 189 198 192 174 175 197 212 208 206 209 206 204 206 214 221 223 225 229 228 231 240 227 191 183 191 196 211 220 216 228 234 233 229 199 191 196 195 200 205 208 207 205 204 204 204 203 202
338 340 340 342 343 340 338 339 337 333 353 354 330 312 61 47 1 336 313 290 276 255 248 250 247 252 255 256 258 253 249 238 231 225 198 184 186 185 176 182 195 193 192 195 178 177 205 220 213 204 211 213 205 206 210 217 222 223 231 236 230 233 223 177 180 197 198 215 229 217 230 239 234 234 220 206 209 204 202 208 210 209 208 208 207 206 204 201
340 340 340 342 342 339 338 338 336 335 354 346 309 332 78 55 3 330 272 281 286 261 238 238 238 242 248 251 237 213 222 229 226 214 191 188 196 194 183 187 202 197 187 195 195 195 205 215 214 207 209 212 205 205 208 214 221 224 228 231 233 227 214 192 193 201 202 215 240 235 235 246 242 240 233 220 217 213 208 211 214 213 212 212 210 208 205 202
342 341 340 342 341 339 339 339 341 357 341 327 287 298 87 12 356 337 281 267 282 263 226 230 236 237 246 248 181 190 216 221 218 205 185 190 198 192 197 195 199 205 194 198 206 216 217 210 212 207 203 208 207 203 208 214 216 221 225 226 236 228 215 213 198 195 208 215 233 245 244 249 242 238 235 224 220 219 212 212 215 214 213 215 214 211 209 205
342 341 340 342 342 339 339 339 13 340 329 321 230 179 58 345 344 332 296 257 271 253 195 210 219 216 199 135 157 189 218 215 217 207 180 191 198 186 197 200 203 208 199 200 207 219 222 196 195 205 200 208 215 209 208 214 216 219 221 224 237 235 222 221 200 189 213 219 213 223 244 254 239 235 236 227 219 218 212 210 212 211 210 212 215 213 210 208
341 341 341 342 341 340 341 346 341 329 322 340 129 177 319 331 331 317 278 258 270 223 145 185 196 173 169 161 167 184 212 207 207 201 183 195 203 196 199 196 203 213 202 199 206 222 217 184 180 207 207 208 217 217 210 211 220 222 213 216 229 236 228 220 202 195 219 231 208 206 232 258 242 231 229 225 223 218 212 212 212 208 205 208 211 211 210 208
339 339 339 340 340 341 341 311 322 325 315 72 79 291 310 318 320 305 250 259 266 199 121 180 182 155 169 165 168 179 187 144 169 189 190 196 200 204 214 195 192 217 202 189 205 211 205 195 189 207 213 209 214 218 209 207 220 227 210 206 214 222 224 218 210 213 227 231 208 200 224 253 252 236 223 221 223 218 213 216 215 211 208 207 208 208 208 208
336 336 337 337 337 336 316 285 309 318 310 355 324 296 314 313 300 265 253 271 250 112 125 147 114 154 177 163 185 211 284 125 182 185 183 194 197 198 214 206 199 206 189 189 207 183 190 206 198 199 212 214 214 217 209 206 219 232 218 201 204 214 222 222 220 226 232 231 220 208 220 247 254 236 214 216 220 220 220 220 217 214 212 209 208 208 206 207
335 333 334 335 334 335 315 271 279 283 288 295 291 300 314 303 268 226 256 266 173 143 160 143 139 175 171 165 202 226 251 241 243 157 173 194 202 207 224 218 211 204 192 204 220 179 180 211 205 198 212 217 216 219 214 210 218 229 218 198 203 213 220 225 227 233 234 231 232 218 209 230 257 238 211 211 219 226 228 225 219 216 214 211 209 208 205 203
333 330 332 333 331 334 320 270 265 281 287 278 298 314 304 271 227 225 226 232 230 152 140 159 166 168 175 182 197 208 225 233 195 153 175 186 196 208 238 233 220 212 200 209 226 216 173 193 205 205 212 216 219 222 218 214 216 219 206 202 207 210 218 227 229 239 240 228 235 236 214 214 251 249 219 208 219 234 238 233 227 219 215 213 210 207 204 200
331 328 329 329 321 306 292 275 266 284 273 289 318 305 274 232 218 238 215 218 296 167 154 182 172 162 189 203 193 186 204 217 185 173 178 179 189 197 204 216 214 213 207 205 221 220 191 178 196 205 209 213 219 221 216 215 218 217 210 209 206 197 207 222 219 230 242 229 229 238 224 213 237 251 235 216 220 236 245 245 243 227 216 211 207 205 203 200
330 327 326 323 315 285 256 259 268 265 257 307 311 274 234 210 222 234 206 120 233 179 174 188 177 179 196 212 221 200 206 212 192 188 188 185 188 194 200 202 192 201 211 203 206 213 208 202 198 192 197 207 212 211 205 210 215 216 215 211 205 197 199 212 213 214 230 233 232 236 227 218 233 247 248 242 231 236 245 253 258 247 226 211 202 202 201 199
329 327 325 323 315 272 252 262 262 260 271 288 280 237 218 229 226 214 203 202 164 125 159 179 182 193 203 215 211 204 228 215 189 197 199 194 195 197 204 207 199 204 214 203 199 205 209 210 207 200 192 198 206 207 201 200 203 208 210 207 206 207 207 211 216 216 224 231 230 229 227 228 236 242 243 247 246 248 255 259 260 257 244 221 202 199 198 198
328 328 327 324 310 273 259 262 248 246 252 244 233 210 217 231 227 204 210 215 203 108 145 164 190 203 215 229 217 207 235 208 184 202 201 195 204 203 203 209 208 211 219 207 203 205 207 208 206 205 193 186 201 213 213 200 197 207 212 214 215 215 217 215 213 219 224 227 221 213 214 231 238 239 235 239 245 252 262 265 259 249 235 220 205 201 199 197
330 330 324 314 298 277 260 243 228 206 204 211 211 213 218 225 223 213 217 217 220 214 186 187 218 221 223 226 222 222 234 208 185 207 210 202 210 207 202 207 205 207 216 212 202 207 218 221 200 199 198 190 196 210 216 210 203 205 211 219 221 218 224 231 229 232 231 231 224 209 207 234 242 241 226 233 248 253 259 260 252 241 223 207 203 203 202 199
330 328 316 295 271 261 240 224 202 188 204 218 217 220 223 225 221 218 211 213 227 232 224 222 224 233 236 223 217 206 205 221 203 206 219 214 217 214 207 205 200 203 214 215 205 203 220 229 191 191 201 200 196 199 206 218 215 195 206 219 222 222 229 234 234 238 236 233 230 212 211 230 238 240 234 239 250 251 252 253 246 239 217 203 205 204 203 201
326 324 310 287 270 251 225 204 182 187 209 223 225 229 230 228 231 235 218 203 235 240 236 235 221 226 234 227 227 210 194 211 214 214 223 211 214 217 211 207 199 203 214 218 218 207 221 235 188 186 202 200 197 201 204 216 223 207 207 212 213 226 239 239 230 222 223 231 234 226 225 226 227 234 233 235 241 240 242 248 249 239 211 206 211 205 201 200
315 310 294 269 256 250 205 183 175 188 211 223 234 240 240 236 234 233 226 221 252 238 232 238 223 218 228 230 232 213 195 200 204 212 223 207 202 207 209 210 198 201 211 216 223 204 209 241 197 186 203 196 192 207 208 210 218 226 227 208 206 218 224 226 228 225 225 230 236 235 235 231 227 229 215 214 224 226 230 239 245 237 213 210 214 206 199 198
309 304 283 167 132 79 118 169 182 201 216 220 232 236 238 243 237 234 238 239 247 240 233 241 234 222 226 233 234 206 194 208 207 204 214 205 183 188 205 212 197 198 206 210 223 211 195 238 216 183 198 197 188 206 212 200 207 222 233 223 217 222 218 216 222 229 233 234 236 238 237 228 223 230 223 213 215 226 239 247 254 255 236 220 212 204 198 195
315 301 281 108 113 84 93 187 210 217 219 225 236 235 235 242 238 236 239 239 241 240 238 242 240 233 227 230 238 217 201 217 217 209 213 200 181 183 205 212 199 197 204 207 217 223 199 220 231 186 189 199 195 201 211 206 198 205 217 220 216 215 222 226 224 223 231 238 237 238 241 231 213 221 226 225 225 235 252 259 258 261 255 237 218 206 197 194
312 281 124 96 124 167 248 234 227 220 226 233 240 241 243 250 247 239 234 235 239 241 245 249 247 244 238 231 233 224 214 223 223 223 224 207 209 210 197 208 210 200 200 205 210 216 207 208 223 203 186 204 210 203 210 217 211 200 202 213 216 212 214 224 225 219 223 235 237 239 245 239 217 205 213 224 232 234 240 250 254 258 259 252 228 209 199 194
289 261 310 343 277 249 258 248 233 230 234 237 242 246 250 257 256 249 239 235 235 234 239 247 248 247 246 240 236 232 228 231 228 227 231 220 220 217 167 184 222 213 202 211 211 209 212 213 221 222 209 212 217 209 209 218 222 219 212 212 216 216 217 222 223 217 221 231 236 241 246 241 230 209 192 209 229 233 236 249 259 259 257 252 226 209 200 195
279 282 300 305 263 224 245 252 242 237 233 240 249 250 250 252 250 248 243 235 231 226 226 233 237 238 241 240 239 237 234 236 238 234 236 233 224 227 227 224 238 221 203 210 209 199 207 215 216 229 230 220 222 218 209 213 222 227 222 215 215 218 220 226 229 225 228 228 227 237 241 234 229 213 192 212 228 226 230 245 254 257 259 248 216 200 193 192
295 287 284 274 210 211 242 253 252 250 242 241 244 246 248 249 247 244 241 235 228 225 226 228 229 230 235 236 235 236 232 232 240 237 238 244 233 233 245 246 241 226 204 205 200 182 191 208 207 220 225 216 220 216 203 206 217 226 226 220 219 221 222 226 230 231 233 230 228 233 236 228 220 204 206 231 227 217 220 233 239 246 258 252 214 184 182 184
295 278 258 233 207 212 241 264 275 277 267 259 259 258 253 247 243 240 241 242 237 232 232 230 228 228 230 232 232 234 234 234 238 234 233 239 234 231 237 236 235 230 222 245 255 186 194 206 202 212 217 209 212 211 202 205 211 219 228 225 221 222 223 224 227 229 232 232 231 235 238 232 220 200 196 214 217 213 222 234 239 243 253 252 218 173 173 176
299 287 278 249 213 219 244 256 261 263 269 278 279 270 259 251 244 233 234 242 240 238 242 239 231 227 223 226 229 230 230 230 233 235 234 233 227 221 222 225 229 227 232 288 288 227 219 217 207 217 229 225 220 216 212 212 213 215 222 225 225 223 225 227 228 229 230 229 232 238 243 240 226 206 198 208 219 226 228 231 237 241 245 246 222 183 174 175
278 280 291 303 289 266 249 235 241 255 271 282 290 289 278 272 266 240 226 233 234 232 238 239 233 229 222 220 224 227 227 226 227 230 234 235 233 219 205 211 222 220 235 268 245 223 235 230 214 221 233 238 239 233 221 217 221 221 220 221 224 224 225 228 230 233 234 233 232 231 231 235 234 223 214 213 222 230 230 231 240 246 249 244 215 183 180 180
266 278 301 319 301 279 276 293 313 309 291 283 279 281 281 278 276 264 237 234 234 227 227 231 228 229 230 226 225 228 227 225 226 228 230 232 235 234 221 216 220 216 220 233 222 211 231 233 223 226 231 234 237 239 235 228 225 227 226 222 222 223 224 226 232 235 236 238 240 231 224 227 230 231 230 227 224 228 231 236 243 251 257 249 210 189 195 191
273 274 290 303 285 286 303 313 317 306 288 282 276 265 270 271 267 267 266 257 243 229 225 229 226 226 229 229 230 230 224 225 226 223 223 226 226 232 235 228 222 216 220 228 217 205 225 234 232 234 235 233 233 234 236 236 230 228 229 229 227 226 225 226 231 233 234 239 244 242 237 232 226 227 235 239 238 240 243 243 243 249 254 249 224 211 212 204
286 289 292 300 290 288 292 291 292 290 280 278 273 264 266 266 266 280 293 277 263 247 232 230 234 242 236 228 229 233 230 236 242 231 224 223 218 221 232 236 228 214 215 227 216 196 212 230 233 239 242 236 232 232 235 239 238 233 230 230 232 231 229 227 227 229 232 236 238 240 242 240 230 228 235 239 241 244 244 240 239 243 247 245 232 223 221 216
281 291 289 292 288 280 277 272 272 279 278 269 266 270 271 272 293 324 313 278 267 268 265 266 290 313 285 239 229 234 237 247 263 267 267 252 241 241 243 242 240 221 212 219 207 188 208 225 226 241 247 235 228 228 230 235 240 239 234 230 231 232 232 232 229 227 229 232 233 235 238 238 232 231 233 232 234 238 237 233 234 236 241 242 234 227 226 219
269 275 264 266 278 276 274 273 264 263 268 268 276 292 292 296 321 333 315 282 266 273 307 335 334 325 301 264 242 260 299 314 302 293 292 281 272 274 272 262 257 248 225 218 207 189 205 218 216 232 247 241 231 229 229 230 233 235 232 229 230 232 233 235 235 230 229 230 233 234 235 237 234 230 228 229 230 232 229 228 232 233 235 236 233 233 234 225